Provo, UT

11:25 PM MDT on July 20, 2017 (GMT -0600)
Provo Municipal

Weather History for KPVU - September, 2012

Change the Weather History Date:

Sunday, September 16, 2012

  Actual Average Record
Temperature  
Mean Temperature 68 °F -  
Max Temperature 84 °F 73 °F 91 °F (2000)
Min Temperature 51 °F 46 °F 41 °F (1991)
Cooling Degree Days 2    
Growing Degree Days 18 (Base 50)    
Moisture  
Dew Point 37 °F    
Average Humidity 38    
Maximum Humidity 67    
Minimum Humidity 14    
Precipitation  
Precipitation 0.00 in - - ()
Sea Level Pressure  
Sea Level Pressure 30.13 in    
Wind  
Wind Speed 5 mph (East)    
Max Wind Speed 10 mph    
Max Gust Speed -    
Visibility 12 miles    
Events      
Averages and records for this station are not official NWS values.
T = Trace of Precipitation, MM = Missing Value Source: NWS Daily Summary

Daily Weather History Graph

Daily Weather History Graph

Search for Another Location

Airport or City:

Trip Planner

Search our weather history database for the weather conditions in past years. The results will help you decide how hot, cold, wet, or windy it might be!

Date:

Astronomy

Sep. 16, 2012 Rise Set
Actual Time 7:09 AM MDT 7:33 PM MDT
Civil Twilight 6:42 AM MDT 8:00 PM MDT
Nautical Twilight 6:09 AM MDT 8:32 PM MDT
Astronomical Twilight 5:37 AM MDT 9:04 PM MDT
Moon 7:52 AM MDT (9/16) 7:40 PM MDT (9/16)
Length of Visible Light 13h 18m
Length of Day
12h 23m
New Moon, 1% of the Moon is Illuminated
Sep 16
New Moon
Sep 22
First Quarter
Sep 29
Full
Oct 8
Last Quarter
Oct 15
New

Hourly Weather History & Observations

Time (MDT) Temp. Dew Point Humidity Pressure Visibility Wind Dir Wind Speed Gust Speed Precip Events Conditions
1:15 AM 57.2 °F 37.4 °F 48% 30.16 in 10.0 mi East 4.6 mph - N/A   Clear
1:35 AM 57.2 °F 33.8 °F 41% 30.16 in 10.0 mi ESE 3.5 mph - N/A   Clear
1:55 AM 55.4 °F 33.8 °F 44% 30.16 in 10.0 mi ESE 6.9 mph - N/A   Clear
2:35 AM 53.6 °F 33.8 °F 47% 30.16 in 10.0 mi SE 4.6 mph - N/A   Clear
2:55 AM 55.4 °F 35.6 °F 47% 30.16 in 10.0 mi East 6.9 mph - N/A   Clear
3:55 AM 53.6 °F 32.0 °F 44% 30.16 in 10.0 mi East 4.6 mph - N/A   Clear
4:15 AM 53.6 °F 33.8 °F 47% 30.17 in 10.0 mi ESE 8.1 mph - N/A   Clear
4:35 AM 55.4 °F 32.0 °F 41% 30.17 in 10.0 mi East 6.9 mph - N/A   Clear
5:15 AM 51.8 °F 30.2 °F 44% 30.17 in 10.0 mi Calm Calm - N/A   Clear
5:35 AM 53.6 °F 30.2 °F 41% 30.17 in 10.0 mi South 6.9 mph - N/A   Clear
7:50 AM 53.6 °F 35.6 °F 51% 30.20 in 15.0 mi Variable 5.8 mph - N/A   Clear
8:50 AM 59.0 °F 35.6 °F 42% 30.21 in 15.0 mi Variable 4.6 mph - N/A   Partly Cloudy
9:50 AM 68.0 °F 35.6 °F 30% 30.22 in 15.0 mi Variable 4.6 mph - N/A   Partly Cloudy
11:50 AM 77.0 °F 33.8 °F 21% 30.19 in 15.0 mi Calm Calm - N/A   Partly Cloudy
12:50 PM 80.6 °F 44.6 °F 28% 30.16 in 15.0 mi Variable 5.8 mph - N/A   Scattered Clouds
2:50 PM 84.2 °F 33.8 °F 16% 30.12 in 15.0 mi Variable 3.5 mph - N/A   Scattered Clouds
3:50 PM 84.2 °F 30.2 °F 14% 30.08 in 15.0 mi Variable 5.8 mph - N/A   Scattered Clouds
4:50 PM 84.2 °F 30.2 °F 14% 30.06 in 15.0 mi Calm Calm - N/A   Scattered Clouds
5:50 PM 82.4 °F 35.6 °F 19% 30.06 in 15.0 mi West 9.2 mph - N/A   Scattered Clouds
6:54 PM 53.6 °F 42.8 °F 67% 30.06 in 15.0 mi NW 10.4 mph - N/A   Scattered Clouds
7:55 PM 71.6 °F 53.6 °F 53% 30.06 in 15.0 mi NW 6.9 mph - N/A   Scattered Clouds
8:48 PM 71.6 °F 48.2 °F 43% 30.07 in 15.0 mi SW 5.8 mph - N/A   Scattered Clouds
9:15 PM 71.6 °F 48.2 °F 43% 30.08 in 10.0 mi NNW 9.2 mph - N/A   Clear
9:35 PM 73.4 °F 41.0 °F 31% 30.08 in 10.0 mi North 8.1 mph - N/A   Partly Cloudy
9:55 PM 71.6 °F 41.0 °F 33% 30.07 in 10.0 mi ENE 6.9 mph - N/A   Clear